Fortuna, CA

7:51 PM PDT on September 23, 2017 (GMT -0700)
Rohnerville

Weather History for KFOT - March, 2014

Change the Weather History Date:

Sunday, March 2, 2014

  Actual Average (KEKA) Record (KEKA)
Temperature  
Mean Temperature 54 °F -  
Max Temperature 59 °F 54 °F 68 °F (1930)
Min Temperature 50 °F 43 °F 30 °F (1917)
Degree Days  
Heating Degree Days 10    
Growing Degree Days 4 (Base 50)    
Moisture  
Dew Point 50 °F    
Average Humidity 87    
Maximum Humidity 100    
Minimum Humidity 67    
Precipitation  
Precipitation 0.01 in - - ()
Sea Level Pressure  
Sea Level Pressure 29.92 in    
Wind  
Wind Speed 8 mph (SE)    
Max Wind Speed 20 mph    
Max Gust Speed 24 mph    
Visibility 9 miles    
Events      
Averages and records for this station are not official NWS values.
T = Trace of Precipitation, MM = Missing Value Source: NWS Daily Summary

Daily Weather History Graph

Daily Weather History Graph

Search for Another Location

Airport or City:

Trip Planner

Search our weather history database for the weather conditions in past years. The results will help you decide how hot, cold, wet, or windy it might be!

Date:

Astronomy

Mar. 02, 2014 Rise Set
Actual Time 6:48 AM PST 6:09 PM PST
Civil Twilight 6:21 AM PST 6:36 PM PST
Nautical Twilight 5:49 AM PST 7:08 PM PST
Astronomical Twilight 5:18 AM PST 7:39 PM PST
Moon 7:23 AM PST (3/2) 8:12 PM PST (3/2)
Length of Visible Light 12h 15m
Length of Day
11h 20m
Waxing Crescent, 3% of the Moon is Illuminated
Mar 2
Waxing Crescent
Mar 8
First Quarter
Mar 16
Full
Mar 23
Last Quarter
Mar 30
New

Hourly Weather History & Observations

Time (PST) Temp. Dew Point Humidity Pressure Visibility Wind Dir Wind Speed Gust Speed Precip Events Conditions
12:10 AM 50.0 °F 50.0 °F 100% 29.81 in 10.0 mi SE 5.8 mph - N/A   Mostly Cloudy
12:30 AM 50.0 °F 50.0 °F 100% 29.82 in 10.0 mi SSE 5.8 mph - N/A   Overcast
12:50 AM 50.0 °F 50.0 °F 100% 29.82 in 8.0 mi ESE 6.9 mph - 0.01 in   Overcast
1:10 AM 50.0 °F 50.0 °F 100% 29.82 in 10.0 mi ESE 4.6 mph - N/A   Overcast
1:30 AM 50.0 °F 50.0 °F 100% 29.82 in 10.0 mi SSE 3.5 mph - N/A   Overcast
1:50 AM 50.0 °F 50.0 °F 100% 29.82 in 10.0 mi East 5.8 mph - N/A   Overcast
2:10 AM 51.8 °F 50.0 °F 94% 29.82 in 10.0 mi ESE 6.9 mph - N/A   Overcast
2:30 AM 50.0 °F 50.0 °F 100% 29.82 in 10.0 mi SE 5.8 mph - N/A   Overcast
2:50 AM 50.0 °F 50.0 °F 100% 29.81 in 10.0 mi SE 5.8 mph - N/A   Overcast
3:10 AM 51.8 °F 50.0 °F 94% 29.82 in 10.0 mi SE 6.9 mph - N/A   Overcast
3:30 AM 50.0 °F 50.0 °F 100% 29.82 in 10.0 mi SE 3.5 mph - N/A   Overcast
3:50 AM 50.0 °F 50.0 °F 100% 29.81 in 10.0 mi ESE 8.1 mph - 0.01 in   Overcast
4:10 AM 51.8 °F 50.0 °F 94% 29.81 in 10.0 mi SE 6.9 mph - N/A   Overcast
4:30 AM 50.0 °F 50.0 °F 100% 29.81 in 10.0 mi SSE 4.6 mph - N/A   Overcast
4:50 AM 50.0 °F 50.0 °F 100% 29.82 in 10.0 mi SE 4.6 mph - N/A   Overcast
5:10 AM 51.8 °F 50.0 °F 94% 29.82 in 10.0 mi SE 6.9 mph - N/A   Overcast
5:30 AM 51.8 °F 50.0 °F 94% 29.82 in 10.0 mi Calm Calm - N/A   Overcast
5:50 AM 51.8 °F 50.0 °F 94% 29.82 in 10.0 mi ESE 6.9 mph - N/A   Overcast
6:10 AM 53.6 °F 50.0 °F 88% 29.82 in 10.0 mi ESE 6.9 mph - N/A   Overcast
6:30 AM 53.6 °F 50.0 °F 88% 29.83 in 10.0 mi SSE 3.5 mph - N/A   Overcast
6:50 AM 51.8 °F 50.0 °F 94% 29.83 in 7.0 mi ESE 5.8 mph - N/A   Overcast
7:10 AM 53.6 °F 51.8 °F 94% 29.84 in 5.0 mi ESE 4.6 mph - N/A   Overcast
7:30 AM 53.6 °F 51.8 °F 94% 29.85 in 3.0 mi ESE 6.9 mph - N/A   Mostly Cloudy
7:50 AM 53.6 °F 51.8 °F 94% 29.85 in 4.0 mi ESE 9.2 mph - N/A   Overcast
8:10 AM 53.6 °F 51.8 °F 94% 29.86 in 8.0 mi ESE 8.1 mph - N/A   Overcast
8:30 AM 53.6 °F 53.6 °F 100% 29.86 in 9.0 mi SE 9.2 mph - N/A   Mostly Cloudy
8:50 AM 53.6 °F 53.6 °F 100% 29.87 in 10.0 mi SE 9.2 mph - N/A   Mostly Cloudy
9:10 AM 55.4 °F 53.6 °F 94% 29.87 in 10.0 mi SE 12.7 mph - N/A   Mostly Cloudy
9:30 AM 55.4 °F 51.8 °F 88% 29.88 in 10.0 mi SE 11.5 mph - N/A   Overcast
9:50 AM 55.4 °F 53.6 °F 94% 29.89 in 4.0 mi SE 8.1 mph - N/A   Overcast
10:10 AM 55.4 °F 53.6 °F 94% 29.90 in 4.0 mi SE 5.8 mph - N/A   Overcast
10:30 AM 55.4 °F 53.6 °F 94% 29.90 in 7.0 mi SE 8.1 mph - N/A   Mostly Cloudy
10:50 AM 55.4 °F 53.6 °F 94% 29.92 in 10.0 mi ESE 8.1 mph - N/A   Mostly Cloudy
11:10 AM 55.4 °F 53.6 °F 94% 29.93 in 9.0 mi SE 3.5 mph - N/A   Mostly Cloudy
11:30 AM 55.4 °F 53.6 °F 94% 29.94 in 7.0 mi Calm Calm - N/A   Mostly Cloudy
11:50 AM 57.2 °F 53.6 °F 88% 29.94 in 10.0 mi SSE 4.6 mph - N/A   Overcast
12:10 PM 59.0 °F 53.6 °F 82% 29.94 in 10.0 mi SSE 8.1 mph - N/A   Overcast
12:30 PM 57.2 °F 50.0 °F 77% 29.94 in 10.0 mi South 5.8 mph - N/A   Overcast
12:50 PM 59.0 °F 48.2 °F 67% 29.94 in 10.0 mi South 16.1 mph 19.6 mph N/A   Overcast
1:10 PM 57.2 °F 50.0 °F 77% 29.94 in 10.0 mi South 8.1 mph - N/A   Mostly Cloudy
1:30 PM 57.2 °F 50.0 °F 77% 29.95 in 10.0 mi SSE 9.2 mph 17.3 mph N/A   Overcast
1:50 PM 57.2 °F 48.2 °F 72% 29.95 in 10.0 mi South 10.4 mph - N/A   Overcast
2:10 PM 59.0 °F 48.2 °F 67% 29.95 in 10.0 mi SSW 15.0 mph 18.4 mph N/A   Overcast
2:30 PM 57.2 °F 50.0 °F 77% 29.97 in 10.0 mi SSW 10.4 mph 17.3 mph N/A   Mostly Cloudy
2:50 PM 57.2 °F 48.2 °F 72% 29.96 in 10.0 mi South 13.8 mph 17.3 mph N/A   Overcast
3:10 PM 57.2 °F 48.2 °F 72% 29.98 in 10.0 mi SSW 8.1 mph - N/A   Overcast
3:30 PM 59.0 °F 48.2 °F 67% 29.98 in 10.0 mi South 8.1 mph - N/A   Overcast
3:50 PM 59.0 °F 48.2 °F 67% 29.98 in 10.0 mi SE 11.5 mph 16.1 mph N/A   Overcast
4:10 PM 59.0 °F 50.0 °F 72% 29.98 in 10.0 mi SE 9.2 mph - N/A   Overcast
4:30 PM 57.2 °F 48.2 °F 72% 29.98 in 10.0 mi ESE 12.7 mph - N/A   Overcast
4:50 PM 57.2 °F 50.0 °F 77% 29.99 in 10.0 mi ESE 11.5 mph - N/A   Overcast
5:10 PM 57.2 °F 48.2 °F 72% 29.99 in 10.0 mi SE 12.7 mph - N/A   Overcast
5:30 PM 55.4 °F 48.2 °F 77% 29.99 in 10.0 mi ESE 13.8 mph - N/A   Overcast
5:50 PM 55.4 °F 48.2 °F 77% 30.00 in 10.0 mi ESE 11.5 mph - N/A   Overcast
6:10 PM 55.4 °F 48.2 °F 77% 29.99 in 10.0 mi ESE 15.0 mph 19.6 mph N/A   Overcast
6:30 PM 55.4 °F 48.2 °F 77% 30.00 in 10.0 mi East 16.1 mph - N/A   Overcast
6:50 PM 55.4 °F 48.2 °F 77% 30.00 in 10.0 mi East 15.0 mph 21.9 mph N/A   Overcast
7:10 PM 53.6 °F 48.2 °F 82% 30.00 in 10.0 mi ESE 16.1 mph - N/A   Overcast
7:30 PM 53.6 °F 48.2 °F 82% 30.00 in 10.0 mi ESE 12.7 mph - N/A   Overcast
7:50 PM 53.6 °F 48.2 °F 82% 30.01 in 9.0 mi ESE 11.5 mph - N/A   Overcast
8:10 PM 53.6 °F 48.2 °F 82% 30.00 in 10.0 mi ESE 16.1 mph - N/A   Overcast
8:30 PM 53.6 °F 48.2 °F 82% 30.01 in 10.0 mi ESE 12.7 mph 18.4 mph N/A   Overcast
8:50 PM 53.6 °F 48.2 °F 82% 30.01 in 10.0 mi ESE 16.1 mph - N/A   Overcast
9:10 PM 53.6 °F 48.2 °F 82% 30.01 in 10.0 mi SE 12.7 mph - N/A   Overcast
9:30 PM 53.6 °F 48.2 °F 82% 30.01 in 10.0 mi SE 15.0 mph - N/A   Overcast
9:50 PM 53.6 °F 50.0 °F 88% 30.02 in 10.0 mi SE 13.8 mph - N/A   Overcast
10:10 PM 53.6 °F 50.0 °F 88% 30.02 in 10.0 mi SE 13.8 mph - N/A   Overcast
10:30 PM 53.6 °F 50.0 °F 88% 30.03 in 8.0 mi ESE 17.3 mph 23.0 mph N/A   Overcast
10:50 PM 53.6 °F 50.0 °F 88% 30.03 in 10.0 mi ESE 16.1 mph - N/A   Overcast
11:10 PM 53.6 °F 50.0 °F 88% 30.02 in 9.0 mi ESE 19.6 mph 23.0 mph N/A   Overcast
11:30 PM 53.6 °F 50.0 °F 88% 30.02 in 10.0 mi ESE 18.4 mph 24.2 mph N/A   Overcast
11:50 PM 53.6 °F 50.0 °F 88% 30.01 in 10.0 mi ESE 19.6 mph - N/A   Overcast